DELTA 1 DEB

基本信息
目录编号:
3812
目录名称:
DELTA 1 DEB
国际标识:
1968-114D
轨道中心:
EARTH
物体状态:
在轨
发射日期:
1968-12-15 UTC
轨道信息
数据来源: 国际轨道数据
星历时间: 2026-07-13T21:11:07+0800
半长轴: 7894.129km
偏心率: 0.0071326
轨道倾角: 102.437°
近地点辐角: 125.793°
升交点赤经: 217.047°
平近点角: 29.479°
近地点: 1459.686km
远地点: 1572.298km
周期: 116.337分钟
每日圈数: 12.377886
详细信息
发射场:
AFWTR
轨道高度:
LEO
数据来源:
AOE Integration Group
参考系:
TEME
时间系统:
UTC
历元类型:
SGP4
2D轨道图
3D轨道图
轨道高度分析图
轨道倾角分析图
轨道综合分析图
查看轨道综合分析图